Content
SEND FEEDBACK

Daily
Averages
Monthly
Summary
United States of America

SOUTH LAKE TAHOE, CALIFORNIA


Home > North America > United States > California
Elevation: 6263 feet     Latitude: 38 53N     Longitude: 119 59W

WEATHER
 
SELECT A DAY
Number of Records: 176,494;   Date Range: 1/1/95 - 9/29/14
 
SHARE

PRINT THIS DATA

[ ← Previous Day ]
WEATHER ALMANAC - JULY 15, 2013
[ Next Day → ]
[ °C ]   °F
We're sorry. There is no daily almanac available for South Lake Tahoe, California on July 15, 2013.
WEATHER BY HOUR - JULY 15, 2013
[ °C ]   °F
Local TimeTemperatureDewpointHumidityBarometerVisibilityWind DirectionWind SpeedGust SpeedPrecipitationEventsConditions
1:53 AM50.0 °F39.0 °F66 %30.00 in10.0 miSouth (190°)3.5 mphClear
2:53 AM48.9 °F39.0 °F69 %30.01 in10.0 miSouth (190°)4.6 mphPartly Cloudy
3:53 AM48.9 °F37.9 °F66 %29.99 in10.0 miSouth (180°)3.5 mphPartly Cloudy
4:53 AM48.0 °F37.9 °F68 %30.00 in10.0 miCalmPartly Cloudy
5:53 AM46.0 °F37.9 °F73 %30.01 in10.0 miCalmClear
6:53 AM48.0 °F37.9 °F68 %30.01 in10.0 miCalmPartly Cloudy
7:53 AM57.9 °F41.0 °F53 %29.99 in10.0 miSSE (160°)3.5 mphClear
8:53 AM69.1 °F37.0 °F31 %29.95 in10.0 miENE (60°)3.5 mphClear
9:53 AM73.0 °F43.0 °F34 %29.94 in10.0 miNNE (20°)5.8 mphClear
10:53 AM73.9 °F39.0 °F28 %29.94 in10.0 miVariable4.6 mphPartly Cloudy
11:53 AM75.9 °F37.9 °F25 %29.93 in10.0 miVariable3.5 mphPartly Cloudy
12:53 PM77.0 °F35.1 °F22 %29.93 in10.0 miVariable6.9 mphMostly Cloudy
1:53 PM79.0 °F35.1 °F20 %29.91 in10.0 miVariable4.6 mphScattered Clouds
2:53 PM80.1 °F39.0 °F23 %29.91 in10.0 miVariable6.9 mphScattered Clouds
3:53 PM79.0 °F43.0 °F28 %29.90 in10.0 miNNE (30°)6.9 mphMostly Cloudy
4:53 PM80.1 °F41.0 °F25 %29.88 in10.0 miVariable3.5 mphPartly Cloudy
5:53 PM78.1 °F39.0 °F25 %29.89 in10.0 miSSW (200°)9.2 mphClear
6:53 PM75.9 °F39.9 °F27 %29.88 in10.0 miSouth (190°)12.7 mphClear
7:53 PM71.1 °F41.0 °F34 %29.88 in10.0 miSSW (210°)5.8 mphClear
8:53 PM68.0 °F41.0 °F37 %29.87 in10.0 miSSW (210°)4.6 mphClear
9:53 PM68.0 °F41.0 °F37 %29.87 in10.0 miSouth (190°)9.2 mphMostly Cloudy
10:53 PM61.0 °F41.0 °F48 %29.89 in10.0 miCalmClear
11:53 PM57.0 °F39.9 °F53 %29.90 in10.0 miCalmClear
Hourly data recorded from KTVL, located miles away from South Lake Tahoe, California







STORIES FROM OUR PARTNERS